Temp
1 1 1 1 1 1 1 1 0 0 0 0 0 -0 -0 -0 -1 -2 -2 -2 -3 -3 -4 -5 -6 -7 -8 -8 -9 -9 -9 -10 -10 -10 -11 -11 -11 -11
1 1 1 1 1 1 1 0 0 0 -0 -0 -0 -0 -1 -1 -2 -2 -3 -3 -3 -4 -5 -6 -7 -8 -8 -9 -9 -9 -10 -10 -10 -11 -11 -11 -11 -11
1 1 1 1 1 1 1 0 0 0 0 -0 -1 -1 -1 -2 -2 -3 -3 -3 -3 -5 -6 -7 -7 -8 -9 -9 -9 -10 -10 -10 -11 -11 -11 -11 -12 -12
1 1 1 1 1 0 0 0 0 -0 -0 -1 -1 -1 -2 -2 -2 -3 -3 -3 -4 -5 -6 -7 -8 -9 -9 -9 -10 -10 -11 -11 -11 -11 -11 -12 -12 -12
1 1 1 0 0 0 0 0 -0 -0 -1 -1 -1 -2 -2 -2 -3 -3 -3 -4 -4 -5 -6 -7 -8 -9 -9 -10 -10 -11 -11 -11 -11 -12 -12 -12 -12 -12
0 0 0 0 0 -0 0 -0 -1 -1 -1 -1 -2 -2 -2 -3 -3 -3 -4 -4 -5 -6 -7 -8 -9 -9 -10 -10 -11 -11 -11 -12 -12 -12 -12 -12 -12 -12
0 0 -0 -0 -0 -0 -0 -1 -1 -1 -1 -2 -2 -2 -3 -3 -3 -3 -4 -5 -6 -7 -8 -8 -9 -9 -10 -11 -11 -11 -12 -12 -12 -12 -13 -13 -13 -12
-0 -0 -0 -0 -1 -1 -1 -1 -1 -2 -2 -2 -3 -3 -3 -3 -4 -4 -4 -5 -6 -7 -8 -9 -9 -10 -10 -11 -11 -12 -12 -12 -12 -13 -13 -13 -13 -13
-1 -1 -1 -1 -1 -1 -1 -1 -2 -2 -3 -3 -3 -3 -3 -3 -4 -4 -4 -5 -6 -7 -8 -9 -9 -10 -11 -11 -12 -12 -12 -13 -13 -13 -13 -13 -13 -13
-1 -1 -1 -1 -1 -1 -1 -2 -2 -2 -3 -3 -3 -3 -4 -4 -4 -4 -4 -5 -6 -7 -8 -9 -10 -10 -11 -11 -12 -12 -12 -13 -13 -14 -14 -14 -14 -14
-1 -1 -1 -1 -1 -1 -2 -2 -2 -3 -3 -3 -3 -4 -4 -4 -4 -4 -5 -6 -7 -7 -8 -9 -9 -10 -11 -11 -12 -12 -12 -12 -13 -13 -14 -14 -14 -14
-1 -1 -2 -2 -2 -2 -2 -2 -3 -3 -3 -3 -4 -4 -4 -4 -4 -4 -5 -6 -7 -8 -8 -9 -10 -10 -11 -11 -11 -12 -12 -12 -13 -13 -13 -14 -14 -14
-2 -2 -2 -2 -2 -2 -2 -3 -3 -3 -3 -4 -4 -4 -4 -4 -4 -4 -5 -6 -7 -7 -8 -9 -9 -10 -10 -11 -11 -12 -12 -12 -13 -13 -13 -13 -13 -14
-2 -2 -2 -2 -2 -3 -3 -3 -3 -4 -4 -4 -4 -4 -4 -4 -4 -5 -5 -6 -7 -7 -8 -9 -9 -10 -10 -10 -11 -11 -11 -12 -12 -12 -13 -13 -13 -13
-2 -2 -2 -3 -3 -3 -3 -3 -4 -4 -4 -4 -4 -4 -5 -5 -5 -5 -5 -6 -7 -7 -8 -8 -9 -9 -10 -10 -10 -11 -11 -11 -11 -12 -12 -12 -13 -13
-2 -2 -2 -3 -3 -3 -3 -4 -4 -4 -4 -4 -4 -5 -5 -5 -5 -5 -5 -6 -7 -7 -8 -8 -9 -9 -10 -10 -11 -11 -11 -11 -11 -12 -12 -12 -12 -13
-2 -2 -2 -3 -3 -3 -3 -4 -4 -4 -4 -5 -5 -5 -5 -5 -5 -5 -5 -6 -6 -7 -8 -8 -9 -9 -10 -10 -11 -11 -11 -11 -11 -11 -12 -12 -12 -13
-2 -2 -3 -3 -3 -4 -4 -4 -4 -4 -5 -5 -5 -5 -5 -5 -5 -5 -5 -6 -6 -7 -8 -8 -9 -9 -10 -10 -11 -11 -11 -11 -11 -11 -12 -12 -12 -12
-1 -2 -2 -3 -3 -4 -4 -4 -4 -5 -5 -5 -5 -5 -5 -5 -5 -5 -5 -6 -6 -7 -7 -8 -9 -9 -10 -10 -11 -11 -11 -11 -11 -11 -11 -12 -12 -12
-1 -2 -3 -3 -4 -4 -4 -4 -5 -5 -5 -5 -5 -5 -5 -5 -5 -5 -5 -6 -6 -6 -7 -7 -8 -9 -9 -10 -10 -11 -11 -11 -11 -11 -11 -12 -12 -12
-2 -2 -3 -4 -4 -4 -4 -5 -5 -5 -5 -5 -5 -5 -5 -6 -6 -6 -6 -6 -6 -6 -7 -7 -8 -8 -9 -10 -10 -11 -11 -11 -11 -11 -12 -12 -12 -12
-2 -3 -3 -4 -4 -4 -5 -5 -5 -5 -5 -5 -5 -6 -6 -6 -6 -6 -6 -6 -6 -6 -7 -7 -7 -8 -9 -9 -10 -10 -11 -11 -11 -11 -11 -12 -12 -12
-2 -3 -4 -4 -4 -5 -5 -5 -5 -5 -5 -6 -6 -6 -6 -6 -6 -6 -6 -6 -6 -6 -7 -7 -7 -7 -8 -9 -9 -10 -10 -11 -11 -11 -12 -12 -12 -12
Height
3164 3164 3163 3163 3162 3160 3158 3156 3154 3150 3146 3142 3138 3133 3128 3122 3116 3110 3104 3097 3090 3083 3075 3068 3061 3055 3049 3044 3039 3034 3029 3024 3019 3015 3010 3006 3001 2997
3163 3163 3162 3162 3160 3159 3157 3154 3151 3148 3144 3140 3135 3130 3125 3120 3114 3107 3101 3094 3087 3079 3072 3066 3059 3054 3049 3043 3038 3033 3028 3023 3018 3013 3009 3004 2999 2995
3161 3161 3161 3161 3159 3157 3155 3152 3150 3146 3142 3137 3132 3127 3122 3116 3111 3105 3098 3091 3084 3077 3070 3064 3058 3053 3047 3042 3037 3032 3028 3023 3017 3012 3007 3003 2998 2994
3160 3160 3160 3159 3157 3156 3154 3151 3148 3144 3140 3135 3130 3126 3120 3114 3109 3103 3096 3089 3082 3075 3068 3062 3056 3051 3046 3041 3036 3032 3026 3022 3017 3012 3007 3002 2998 2994
3157 3157 3157 3156 3155 3154 3151 3149 3145 3142 3138 3134 3129 3124 3119 3112 3106 3099 3092 3085 3079 3073 3067 3061 3056 3050 3045 3040 3036 3031 3027 3021 3017 3012 3007 3002 2998 2994
3155 3155 3155 3153 3153 3151 3148 3146 3143 3140 3136 3132 3127 3122 3116 3110 3104 3098 3092 3086 3079 3072 3066 3061 3055 3050 3045 3040 3035 3031 3026 3021 3017 3012 3008 3003 2999 2994
3152 3152 3152 3151 3150 3148 3146 3143 3141 3138 3134 3129 3125 3120 3115 3109 3104 3098 3090 3083 3077 3072 3066 3060 3055 3050 3045 3040 3035 3031 3026 3021 3017 3012 3008 3003 2999 2994
3149 3150 3149 3148 3147 3145 3143 3141 3138 3135 3132 3127 3122 3117 3112 3106 3101 3096 3090 3083 3077 3071 3065 3060 3054 3049 3044 3039 3034 3030 3026 3021 3017 3012 3008 3003 2999 2993
3146 3146 3146 3146 3144 3142 3141 3139 3136 3133 3129 3125 3121 3115 3109 3104 3099 3092 3086 3080 3075 3069 3063 3058 3053 3048 3043 3039 3034 3030 3025 3021 3016 3011 3007 3002 2997 2992
3143 3143 3143 3142 3141 3139 3138 3136 3133 3130 3127 3123 3118 3113 3108 3103 3097 3092 3085 3078 3073 3067 3062 3056 3052 3048 3043 3039 3034 3030 3025 3020 3016 3011 3006 3001 2996 2991
3139 3140 3140 3139 3138 3137 3135 3133 3131 3128 3124 3120 3116 3111 3107 3102 3096 3090 3083 3078 3072 3067 3061 3056 3051 3047 3043 3039 3035 3030 3025 3020 3016 3011 3006 3001 2996 2991
3135 3136 3136 3136 3135 3133 3132 3130 3127 3124 3120 3117 3113 3109 3105 3100 3095 3089 3082 3077 3072 3067 3062 3057 3052 3048 3043 3039 3035 3030 3025 3021 3016 3012 3007 3003 2997 2992
3131 3131 3132 3132 3131 3129 3128 3126 3124 3121 3117 3114 3110 3106 3102 3098 3093 3088 3082 3077 3072 3066 3061 3057 3052 3048 3044 3039 3034 3031 3026 3022 3017 3013 3008 3004 3000 2995
3126 3127 3127 3127 3127 3126 3124 3123 3121 3118 3115 3112 3108 3104 3100 3096 3091 3086 3081 3076 3071 3066 3061 3057 3053 3049 3045 3041 3036 3031 3027 3023 3019 3015 3010 3005 3000 2996
3121 3122 3123 3123 3123 3122 3120 3119 3117 3115 3112 3108 3105 3102 3098 3094 3090 3085 3081 3076 3071 3066 3061 3057 3053 3049 3046 3041 3037 3033 3029 3025 3021 3016 3012 3008 3004 2999
3116 3117 3118 3118 3118 3118 3116 3115 3113 3111 3109 3106 3102 3099 3096 3093 3089 3085 3080 3075 3071 3066 3061 3057 3053 3049 3046 3042 3038 3033 3030 3026 3021 3017 3013 3008 3004 2999
3109 3111 3113 3114 3113 3113 3112 3111 3109 3108 3106 3103 3100 3097 3094 3091 3087 3084 3079 3074 3069 3065 3060 3057 3052 3048 3045 3042 3038 3034 3030 3026 3022 3018 3013 3009 3005 3001
3104 3106 3108 3108 3108 3108 3107 3106 3105 3104 3102 3099 3097 3095 3092 3089 3086 3082 3078 3073 3068 3064 3060 3056 3052 3048 3045 3042 3038 3034 3031 3027 3023 3018 3014 3010 3006 3002
3099 3101 3102 3102 3103 3102 3102 3101 3100 3099 3097 3095 3093 3091 3089 3087 3084 3080 3077 3072 3068 3063 3059 3055 3052 3048 3044 3040 3037 3033 3030 3026 3023 3019 3014 3010 3006 3002
3094 3095 3096 3096 3096 3096 3096 3096 3095 3094 3093 3091 3089 3088 3086 3084 3081 3078 3075 3071 3067 3062 3058 3054 3050 3047 3043 3040 3036 3032 3029 3025 3022 3018 3015 3011 3007 3002
3087 3089 3089 3089 3089 3089 3090 3089 3089 3089 3088 3087 3085 3084 3082 3080 3078 3075 3072 3069 3065 3061 3057 3053 3049 3045 3041 3038 3034 3031 3027 3024 3020 3017 3014 3011 3007 3002
3080 3081 3081 3081 3081 3082 3082 3083 3083 3083 3082 3082 3080 3079 3077 3076 3074 3071 3068 3066 3063 3059 3055 3051 3047 3043 3039 3036 3032 3029 3025 3022 3018 3015 3012 3009 3006 3002
3071 3072 3072 3072 3072 3073 3074 3075 3076 3076 3076 3076 3075 3073 3072 3071 3069 3067 3064 3062 3059 3056 3053 3049 3045 3041 3037 3034 3030 3027 3023 3020 3017 3013 3010 3007 3003 3000
Wind_Speed
2 2 4 7 9 11 13 15 17 19 22 24 26 28 31 34 36 36 37 38 38 38 37 35 34 33 31 30 28 28 28 28 27 26 25 23 22 22
2 2 4 6 9 11 13 15 17 20 22 24 26 29 31 34 35 36 37 38 39 37 36 33 32 30 28 27 26 25 26 26 27 26 25 25 24 24
3 3 4 7 9 11 14 16 18 20 22 24 26 29 32 35 35 35 37 39 38 36 33 31 30 28 27 26 25 25 25 25 25 25 24 23 23 22
4 4 6 8 10 12 14 17 19 21 22 24 27 29 32 34 34 35 37 38 37 34 31 30 28 28 27 26 25 25 25 25 25 24 23 21 20 19
5 6 7 9 11 13 15 18 19 21 23 24 26 28 31 33 35 37 38 39 36 32 30 28 27 26 26 25 24 24 24 25 24 24 22 20 20 20
6 6 8 10 12 14 17 19 20 21 23 24 26 28 30 32 34 35 36 35 32 29 27 26 25 25 24 24 24 24 24 24 24 23 22 20 20 20
8 8 9 11 13 15 17 19 21 22 22 24 26 27 29 30 31 33 34 34 29 26 24 23 23 23 23 24 23 24 24 24 24 23 21 21 22 23
9 9 10 12 13 15 17 19 20 21 22 23 26 27 30 31 32 33 33 28 26 25 23 22 23 23 23 24 25 24 24 24 24 24 22 22 23 25
11 10 11 12 13 15 16 18 19 20 22 23 25 27 29 30 31 33 33 30 27 25 24 23 24 24 24 24 24 24 25 25 25 25 25 26 26 27
12 11 12 12 13 14 16 17 19 20 21 23 24 26 27 29 30 31 31 30 27 25 25 25 24 24 23 24 24 24 25 25 25 25 25 26 27 27
14 13 13 13 14 15 16 18 19 20 21 22 24 25 25 27 29 30 30 27 26 25 24 23 25 24 24 23 23 24 25 25 25 25 25 26 26 27
16 15 14 13 14 15 16 17 19 20 21 23 24 24 25 26 27 29 29 27 24 23 22 22 22 21 22 23 23 23 24 25 25 24 24 24 25 25
17 16 15 14 14 15 16 17 18 19 20 22 23 23 24 26 27 28 28 26 24 23 22 22 21 21 21 21 23 22 23 24 24 24 24 24 23 23
19 17 16 14 15 15 16 17 17 18 19 21 22 22 23 25 26 27 27 26 24 22 22 20 20 20 20 20 19 23 23 23 22 22 23 24 25 24
20 19 17 16 15 15 16 16 17 17 18 20 20 20 22 23 25 26 26 25 23 21 20 19 18 18 18 19 20 20 20 21 22 22 23 22 21 19
21 21 19 17 16 16 16 16 16 17 17 19 19 19 20 21 23 24 24 23 22 21 20 19 17 17 17 17 19 20 21 22 22 22 22 23 22 22
25 23 20 18 18 17 16 16 16 16 17 18 17 17 18 19 21 22 22 22 22 21 20 19 18 17 17 17 18 20 21 22 21 21 21 21 21 21
26 23 20 21 20 18 17 17 17 16 16 17 16 15 16 17 19 20 21 22 21 21 20 19 18 16 15 16 17 19 20 21 20 19 19 20 21 21
24 22 22 23 22 20 18 18 18 17 16 16 16 15 14 15 17 19 20 21 20 20 19 19 18 17 17 17 17 17 19 19 19 18 18 19 19 20
23 22 22 24 24 23 21 20 19 17 17 17 16 15 14 14 16 17 19 20 20 20 19 19 18 17 16 16 16 17 17 18 18 18 17 18 19 20
25 24 25 26 26 25 23 22 21 19 18 17 17 15 14 14 15 16 18 19 20 20 20 19 19 18 18 18 18 18 18 18 18 18 17 17 18 20
26 26 27 28 28 28 26 24 23 20 19 18 18 16 16 15 15 15 16 18 19 19 19 19 19 18 18 18 18 18 17 17 18 18 17 17 17 17
30 29 30 31 32 31 29 27 25 23 21 20 19 18 17 17 16 16 16 17 18 19 19 19 19 19 18 18 18 18 18 18 17 17 18 17 17 18
Wind_Direction
218 325 344 338 336 338 339 340 342 345 347 345 344 343 343 343 344 345 346 346 345 343 343 343 343 344 347 349 351 350 349 349 349 348 347 346 346 347
235 307 333 335 337 338 340 342 346 347 346 344 343 342 342 344 346 346 346 347 346 344 344 346 345 347 349 350 350 350 350 350 348 346 345 342 342 342
238 291 323 328 335 340 342 346 347 347 345 343 343 344 343 345 347 347 348 347 345 345 346 346 348 349 351 351 352 352 351 351 349 347 349 347 350 354
250 288 312 324 334 341 343 345 346 346 344 343 345 343 344 345 346 349 348 347 346 347 346 349 349 351 352 352 353 353 353 354 355 355 356 357 358 0
257 289 310 322 334 337 343 343 345 344 343 344 343 344 347 346 349 350 349 347 346 347 349 350 350 351 352 353 353 353 354 356 358 360 1 2 4 5
260 287 306 321 328 338 341 341 343 342 343 343 344 346 347 349 351 350 347 345 347 348 349 350 353 353 353 354 354 353 355 357 359 359 359 1 2 1
262 286 302 315 327 335 337 339 341 342 342 341 345 348 350 350 351 351 348 348 350 350 350 353 356 357 356 355 354 354 355 356 358 359 358 356 354 353
261 280 297 311 326 330 335 338 337 337 339 344 346 349 351 352 352 351 350 350 349 353 356 357 360 0 359 356 356 355 353 353 353 353 353 352 351 350
257 274 291 306 318 325 331 331 333 337 340 344 348 352 352 352 352 351 351 353 353 354 358 1 2 1 359 359 356 355 353 352 352 350 349 348 349 351
255 271 284 299 311 320 325 329 333 336 339 345 348 352 352 352 353 351 352 353 355 356 358 360 2 3 1 0 359 357 356 356 355 353 352 352 353 356
257 267 279 294 307 317 322 328 331 334 341 344 349 352 353 353 352 352 355 355 353 355 359 2 1 1 3 5 3 360 1 2 2 0 358 358 1 3
253 263 276 290 303 312 321 325 328 334 339 345 348 351 353 354 352 354 355 355 355 355 1 2 1 1 2 4 8 6 2 4 5 6 6 5 6 8
253 262 274 287 299 308 315 319 326 332 339 342 345 350 353 353 353 356 357 356 354 358 2 2 2 5 6 4 5 11 10 9 9 8 10 10 12 14
251 258 268 280 291 301 308 315 323 329 335 338 343 349 351 352 353 356 357 355 356 359 1 2 2 7 8 10 13 13 16 14 15 15 12 10 8 9
250 258 266 274 284 294 302 310 318 324 329 334 342 348 349 350 352 354 355 354 356 360 0 1 3 8 10 12 17 21 17 13 14 12 9 11 10 11
249 253 259 269 278 287 296 304 311 319 325 330 338 345 345 347 349 352 354 354 355 359 0 359 3 5 8 11 9 9 9 7 7 7 7 7 7 9
245 253 260 266 273 282 290 297 304 312 318 325 333 338 340 343 346 350 351 353 355 358 358 356 359 2 2 3 5 3 1 1 3 6 7 8 8 8
251 256 258 262 269 276 284 289 296 304 310 319 324 328 333 338 343 347 349 352 354 356 356 353 353 356 355 356 358 359 359 356 357 1 4 5 6 6
256 258 258 262 266 272 276 282 287 295 301 310 315 319 323 332 337 345 346 348 352 354 353 352 349 349 348 348 351 354 352 353 353 355 359 1 2 2
259 258 258 259 262 267 271 274 279 285 292 300 306 310 314 322 330 340 344 345 347 351 350 350 347 347 345 345 344 344 348 348 349 349 351 353 357 358
258 256 257 258 261 264 266 269 272 277 283 291 299 302 303 308 319 332 339 340 342 345 348 348 345 345 343 342 342 341 341 343 345 344 345 346 350 353
257 257 257 258 260 262 263 265 266 270 275 282 290 295 295 298 306 319 330 334 337 339 342 344 344 343 340 339 339 339 338 336 337 340 339 339 342 346
251 249 248 251 254 256 258 261 262 264 269 274 281 287 291 292 296 304 316 324 329 332 334 336 339 342 340 336 337 337 336 334 332 333 332 333 333 337